| time (UTC) | temp C | wind direction | speed KPH | gust KPH | rain 1hr cm | rain 24hr cm | rain mn cm | humidity % | barometer mb |
| 20260507015406 | 15 | 196 | 1.6 | 8.0 | 0.00 | 0.00 | 0.00 | 78 | 1021.5 |
| 20260507013320 | 15 | 185 | 3.2 | 9.7 | 0.00 | 0.00 | 0.00 | 77 | 1021.5 |
| 20260507012321 | 15 | 184 | 4.8 | 8.0 | 0.00 | 0.00 | 0.00 | 76 | 1021.4 |
| 20260507011321 | 15 | 188 | 1.6 | 6.4 | 0.00 | 0.00 | 0.00 | 76 | 1021.5 |
| 20260507010343 | 15 | 202 | 3.2 | 8.0 | 0.00 | 0.00 | 0.00 | 76 | 1021.5 |
| 20260507005349 | 15 | 194 | 6.4 | 9.7 | 0.00 | 0.00 | 0.00 | 74 | 1021.5 |
| 20260507004338 | 15 | 199 | 1.6 | 9.7 | 0.00 | 0.00 | 0.00 | 75 | 1021.6 |
| 20260507003331 | 15 | 211 | 3.2 | 8.0 | 0.00 | 0.00 | 0.00 | 74 | 1021.5 |
| 20260507002318 | 15 | 196 | 4.8 | 9.7 | 0.00 | 0.00 | 0.00 | 73 | 1021.6 |
| 20260507001356 | 15 | 192 | 4.8 | 8.0 | 0.00 | 0.00 | 0.00 | 73 | 1021.6 |
| 20260507000321 | 15 | 188 | 4.8 | 8.0 | 0.00 | 0.00 | 0.00 | 73 | 1021.5 |
| 20260506235353 | 15 | 191 | 3.2 | 8.0 | 0.00 | 0.00 | 0.00 | 73 | 1021.4 |
| 20260506234341 | 15 | 43 | 4.8 | 8.0 | 0.00 | 0.00 | 0.00 | 74 | 1021.5 |
| 20260506233350 | 15 | 178 | 0.0 | 11.3 | 0.00 | 0.00 | 0.00 | 76 | 1021.5 |
| 20260506232408 | 15 | 170 | 8.0 | 11.3 | 0.00 | 0.00 | 0.00 | 75 | 1021.6 |
| 20260506231337 | 15 | 163 | 6.4 | 12.9 | 0.00 | 0.00 | 0.00 | 74 | 1021.6 |
| 20260506230343 | 15 | 192 | 6.4 | 9.7 | 0.00 | 0.00 | 0.00 | 73 | 1021.6 |
| 20260506225318 | 16 | 204 | 6.4 | 12.9 | 0.00 | 0.00 | 0.00 | 73 | 1021.6 |
| 20260506224345 | 16 | 175 | 4.8 | 14.5 | 0.00 | 0.00 | 0.00 | 73 | 1021.7 |
| 20260506223323 | 16 | 169 | 4.8 | 11.3 | 0.00 | 0.00 | 0.00 | 74 | 1021.6 |
| 20260506222402 | 15 | 198 | 6.4 | 14.5 | 0.00 | 0.00 | 0.00 | 73 | 1021.6 |
| 20260506221318 | 16 | 196 | 6.4 | 19.3 | 0.00 | 0.00 | 0.00 | 73 | 1021.8 |
| 20260506220336 | 15 | 150 | 8.0 | 19.3 | 0.00 | 0.00 | 0.00 | 74 | 1021.9 |
| 20260506213341 | 16 | 194 | 6.4 | 22.5 | 0.00 | 0.00 | 0.00 | 73 | 1021.6 |
| 20260506212331 | 16 | 150 | 4.8 | 12.9 | 0.00 | 0.00 | 0.00 | 73 | 1021.7 |
| 20260506211318 | 16 | 183 | 3.2 | 9.7 | 0.00 | 0.00 | 0.00 | 76 | 1021.7 |
| 20260506210346 | 15 | 159 | 3.2 | 14.5 | 0.00 | 0.00 | 0.00 | 78 | 1021.9 |
| 20260506205338 | 15 | 167 | 526.3 | 526.3 | 0.00 | 0.00 | 0.00 | 79 | 1021.8 |
| 20260506204336 | 15 | 168 | 9.7 | 14.5 | 0.00 | 0.00 | 0.00 | 80 | 1021.8 |
| 20260506202320 | 15 | 213 | 6.4 | 12.9 | 0.00 | 0.00 | 0.00 | 81 | 1021.7 |
| 20260506201339 | 14 | 188 | 8.0 | 12.9 | 0.00 | 0.00 | 0.00 | 83 | 1021.7 |
| 20260506200348 | 13 | 184 | 3.2 | 11.3 | 0.00 | 0.00 | 0.00 | 83 | 1021.8 |
| 20260506195318 | 13 | 184 | 6.4 | 9.7 | 0.00 | 0.00 | 0.00 | 84 | 1021.9 |
| 20260506194355 | 13 | 211 | 4.8 | 14.5 | 0.00 | 0.00 | 0.00 | 85 | 1021.8 |
| 20260506193343 | 13 | 210 | 6.4 | 9.7 | 0.00 | 0.00 | 0.00 | 85 | 1021.6 |
| 20260506192338 | 13 | 195 | 4.8 | 9.7 | 0.00 | 0.00 | 0.00 | 86 | 1021.5 |
| 20260506191327 | 13 | 182 | 4.8 | 11.3 | 0.00 | 0.00 | 0.00 | 86 | 1021.5 |
| 20260506190346 | 13 | 191 | 6.4 | 11.3 | 0.00 | 0.00 | 0.00 | 87 | 1021.5 |
| 20260506185354 | 13 | 214 | 0.0 | 8.0 | 0.00 | 0.00 | 0.00 | 87 | 1021.5 |
| 20260506184349 | 13 | 199 | 4.8 | 9.7 | 0.00 | 0.00 | 0.00 | 87 | 1021.4 |
| 20260506182346 | 13 | 195 | 3.2 | 9.7 | 0.00 | 0.00 | 0.00 | 86 | 1021.4 |
| 20260506181318 | 13 | 165 | 3.2 | 8.0 | 0.00 | 0.00 | 0.00 | 88 | 1021.3 |
| 20260506180340 | 13 | 204 | 1.6 | 9.7 | 0.00 | 0.00 | 0.00 | 88 | 1021.4 |
| 20260506175343 | 13 | 188 | 8.0 | 12.9 | 0.00 | 0.00 | 0.00 | 87 | 1021.2 |
| 20260506174332 | 13 | 194 | 3.2 | 9.7 | 0.00 | 0.00 | 0.00 | 87 | 1021.3 |
| 20260506173348 | 13 | 150 | 4.8 | 16.1 | 0.00 | 0.00 | 0.00 | 87 | 1021.1 |
| 20260506172326 | 14 | 135 | 6.4 | 12.9 | 0.00 | 0.00 | 0.00 | 88 | 1020.7 |
| 20260506171337 | 13 | 140 | 1.6 | 9.7 | 0.00 | 0.00 | 0.00 | 89 | 1021.0 |
| 20260506170343 | 13 | 126 | 3.2 | 6.4 | 0.00 | 0.00 | 0.00 | 89 | 1021.2 |
| 20260506165317 | 13 | 130 | 3.2 | 6.4 | 0.00 | 0.00 | 0.00 | 90 | 1021.1 |
| 20260506164322 | 13 | 142 | 3.2 | 6.4 | 0.00 | 0.00 | 0.00 | 90 | 1021.0 |
| 20260506163327 | 13 | 183 | 1.6 | 3.2 | 0.00 | 0.00 | 0.00 | 91 | 1021.2 |
| 20260506162336 | 13 | 183 | 0.0 | 6.4 | 0.00 | 0.00 | 0.00 | 91 | 1021.2 |
| 20260506161346 | 13 | 198 | 1.6 | 6.4 | 0.00 | 0.00 | 0.00 | 91 | 1021.0 |
| 20260506160334 | 12 | 187 | 4.8 | 6.4 | 0.00 | 0.00 | 0.00 | 91 | 1021.0 |
| 20260506155355 | 12 | 204 | 3.2 | 8.0 | 0.00 | 0.00 | 0.00 | 92 | 1021.0 |
| 20260506154343 | 12 | 161 | 1.6 | 8.0 | 0.00 | 0.00 | 0.00 | 93 | 1020.7 |
| 20260506153318 | 12 | 204 | 3.2 | 8.0 | 0.00 | 0.00 | 0.00 | 93 | 1020.6 |
| 20260506070343 | 12 | 346 | 1.6 | 6.4 | 0.00 | 0.00 | 0.00 | 89 | 1017.8 |
| 20260506062332 | 12 | 335 | 6.4 | 9.7 | 0.00 | 0.00 | 0.00 | 89 | 1017.8 |
| 20260506061335 | 12 | 351 | 4.8 | 11.3 | 0.00 | 0.00 | 0.00 | 91 | 1017.7 |
| 20260506060327 | 12 | 299 | 0.0 | 0.0 | 0.00 | 0.00 | 0.00 | 91 | 1017.6 |
| 20260506051331 | 13 | 188 | 0.0 | 0.0 | 0.00 | 0.00 | 0.00 | 89 | 1017.1 |
| 20260506050322 | 13 | 188 | 0.0 | 0.0 | 0.00 | 0.00 | 0.00 | 88 | 1017.0 |
| 20260506044337 | 13 | 188 | 0.0 | 0.0 | 0.00 | 0.00 | 0.00 | 88 | 1017.0 |
| 20260506043328 | 14 | 188 | 0.0 | 0.0 | 0.00 | 0.00 | 0.00 | 87 | 1016.8 |
| 20260506042339 | 14 | 188 | 0.0 | 0.0 | 0.00 | 0.00 | 0.00 | 86 | 1016.7 |
| 20260506041351 | 15 | 188 | 0.0 | 0.0 | 0.00 | 0.00 | 0.00 | 85 | 1016.7 |
| 20260506040315 | 15 | 188 | 0.0 | 0.0 | 0.00 | 0.00 | 0.00 | 85 | 1016.6 |
| 20260506035329 | 15 | 188 | 0.0 | 0.0 | 0.00 | 0.00 | 0.00 | 83 | 1016.4 |
| 20260506034344 | 16 | 188 | 0.0 | 1.6 | 0.00 | 0.00 | 0.00 | 82 | 1016.5 |
| 20260506033339 | 16 | 188 | 0.0 | 1.6 | 0.00 | 0.00 | 0.00 | 81 | 1016.5 |
| 20260506032328 | 17 | 188 | 0.0 | 0.0 | 0.00 | 0.00 | 0.00 | 79 | 1016.2 |
| 20260506031343 | 17 | 188 | 0.0 | 0.0 | 0.00 | 0.00 | 0.00 | 77 | 1016.3 |